Location: Omaha
(41.2590°N, 95.9380°W)
Time: 20:42:37
(UTC-05:00)

Vanguard 3 - Pass Details

Date: 28 June 2018
Orbit: 508 x 3264 km, 33.3° (Epoch: 23 September)

Event Time Altitude Azimuth Distance (km) Brightness Sun altitude
Rises 07:00:42 0° 265° (W) 3,468 9.8 10.4°
Reaches altitude 10° 07:03:10 10° 253° (WSW) 2,802 9.3 10.9°
Maximum altitude 07:08:59 28° 195° (SSW) 2,353 9.3 11.9°
Drops below altitude 10° 07:18:03 10° 143° (SE) 4,481 11.2 13.5°
Sets 07:23:16 0° 134° (SE) 5,986 12.0 14.4°
